• In United Kingdom
  • List of Countries
  • For 7 days
  • Water Temperature
  • Satellite Maps
  • Weather Map
  • Weather Widgets
  • user-avatar
    Login

    Hourly Weather Madingou

    Today, 15 December, Friday

    Time Temperature Precipitation Wind Pressure Humidity
    00:00 +23°C° 0 mm 0 mps 744 mmHg 94%
    01:00 +23°C° 0 mm 0 mps 744 mmHg 93%
    02:00 +23°C° 0.1 mm 0 mps 744 mmHg 93%
    03:00 +23°C° 0.1 mm 0 mps 744 mmHg 94%
    04:00 +23°C° 0.1 mm 0 mps 744 mmHg 94%
    05:00 +23°C° 0.1 mm 0 mps 744 mmHg 93%
    06:00 +23°C° 0.1 mm 0 mps 745 mmHg 93%
    07:00 +24°C° 0.1 mm 0 mps 745 mmHg 92%
    08:00 +26°C° 0 mm 0 mps 745 mmHg 84%
    09:00 +28°C° 0 mm 0 mps 745 mmHg 75%
    10:00 +32°C° 0 mm 1 mps 745 mmHg 67%
    11:00 +33°C° 0 mm 1 mps 744 mmHg 62%
    12:00 +35°C° 0 mm 1 mps 744 mmHg 58%
    13:00 +36°C° 0 mm 1 mps 743 mmHg 54%
    14:00 +35°C° 0 mm 1 mps 742 mmHg 55%
    15:00 +35°C° 0 mm 1 mps 741 mmHg 56%
    16:00 +32°C° 0 mm 0 mps 741 mmHg 57%
    17:00 +31°C° 0.3 mm 0 mps 741 mmHg 64%
    18:00 +31°C° 0.3 mm 1 mps 741 mmHg 70%
    19:00 +29°C° 0.3 mm 1 mps 742 mmHg 77%
    20:00 +28°C° 0.7 mm 1 mps 743 mmHg 81%
    21:00 +27°C° 0.7 mm 1 mps 743 mmHg 86%
    22:00 +26°C° 0.7 mm 2 mps 744 mmHg 90%
    23:00 +26°C° 0.4 mm 2 mps 744 mmHg 92%

    Tomorrow, 16 December, Saturday

    Time Temperature Precipitation Wind Pressure Humidity
    00:00 +26°C° 0.4 mm 1 mps 744 mmHg 95%
    01:00 +25°C° 0.4 mm 1 mps 744 mmHg 97%
    02:00 +25°C° 0 mm 1 mps 744 mmHg 97%
    03:00 +25°C° 0 mm 1 mps 744 mmHg 98%
    04:00 +25°C° 0 mm 1 mps 743 mmHg 98%
    05:00 +25°C° 0 mm 1 mps 744 mmHg 97%
    06:00 +25°C° 0 mm 1 mps 744 mmHg 96%
    07:00 +26°C° 0 mm 1 mps 745 mmHg 95%
    08:00 +27°C° 0 mm 1 mps 745 mmHg 91%
    09:00 +28°C° 0 mm 1 mps 745 mmHg 87%
    10:00 +28°C° 0 mm 1 mps 745 mmHg 83%
    11:00 +30°C° 0 mm 1 mps 744 mmHg 78%
    12:00 +31°C° 0 mm 1 mps 744 mmHg 73%
    13:00 +32°C° 0 mm 2 mps 743 mmHg 68%
    14:00 +32°C° 0.6 mm 2 mps 743 mmHg 70%
    15:00 +32°C° 0.6 mm 1 mps 742 mmHg 73%
    16:00 +32°C° 0.6 mm 1 mps 742 mmHg 75%
    17:00 +30°C° 0.3 mm 1 mps 742 mmHg 81%
    18:00 +29°C° 0.3 mm 1 mps 743 mmHg 86%
    19:00 +27°C° 0.3 mm 1 mps 743 mmHg 92%
    20:00 +27°C° 0.1 mm 1 mps 744 mmHg 93%
    21:00 +27°C° 0.1 mm 1 mps 744 mmHg 94%
    22:00 +26°C° 0.1 mm 1 mps 745 mmHg 96%
    23:00 +26°C° 0.4 mm 1 mps 745 mmHg 96%

    Day after tomorrow, 17 December, Sunday

    Time Temperature Precipitation Wind Pressure Humidity
    00:00 +26°C° 0.4 mm 1 mps 744 mmHg 97%
    01:00 +26°C° 0.4 mm 1 mps 744 mmHg 97%
    02:00 +25°C° 0.3 mm 1 mps 744 mmHg 97%
    03:00 +25°C° 0.3 mm 1 mps 744 mmHg 97%
    04:00 +25°C° 0.3 mm 1 mps 744 mmHg 97%
    05:00 +25°C° 0 mm 1 mps 744 mmHg 96%
    06:00 +25°C° 0 mm 1 mps 744 mmHg 96%
    07:00 +26°C° 0 mm 1 mps 745 mmHg 96%
    08:00 +27°C° 0 mm 1 mps 745 mmHg 90%
    09:00 +28°C° 0 mm 2 mps 745 mmHg 84%
    10:00 +29°C° 0 mm 2 mps 746 mmHg 78%
    11:00 +30°C° 0 mm 2 mps 745 mmHg 73%
    12:00 +31°C° 0 mm 2 mps 744 mmHg 69%
    13:00 +32°C° 0 mm 2 mps 743 mmHg 64%
    14:00 +32°C° 0.2 mm 2 mps 743 mmHg 68%
    15:00 +31°C° 0.2 mm 2 mps 742 mmHg 71%
    16:00 +31°C° 0.2 mm 2 mps 741 mmHg 75%
    17:00 +30°C° 0.3 mm 2 mps 742 mmHg 80%
    18:00 +28°C° 0.3 mm 2 mps 743 mmHg 86%
    19:00 +27°C° 0.3 mm 1 mps 743 mmHg 92%
    20:00 +27°C° 0.1 mm 1 mps 744 mmHg 93%
    21:00 +26°C° 0.1 mm 1 mps 745 mmHg 94%
    22:00 +26°C° 0.1 mm 1 mps 745 mmHg 95%
    23:00 +26°C° 0.1 mm 1 mps 745 mmHg 96%

    18 December, Monday

    Time Temperature Precipitation Wind Pressure Humidity
    00:00 +26°C° 0.1 mm 1 mps 745 mmHg 96%
    01:00 +25°C° 0.1 mm 1 mps 744 mmHg 97%
    02:00 +25°C° 0 mm 1 mps 744 mmHg 97%
    03:00 +25°C° 0 mm 1 mps 744 mmHg 97%
    04:00 +25°C° 0 mm 1 mps 744 mmHg 97%
    05:00 +25°C° 0 mm 1 mps 744 mmHg 96%
    06:00 +25°C° 0 mm 1 mps 745 mmHg 96%
    07:00 +25°C° 0 mm 1 mps 745 mmHg 95%
    08:00 +27°C° 0 mm 1 mps 745 mmHg 89%
    09:00 +28°C° 0 mm 1 mps 746 mmHg 84%
    10:00 +29°C° 0 mm 1 mps 746 mmHg 78%
    11:00 +30°C° 0.1 mm 1 mps 745 mmHg 75%
    12:00 +31°C° 0.1 mm 1 mps 744 mmHg 72%
    13:00 +31°C° 0.1 mm 1 mps 743 mmHg 68%
    14:00 +31°C° 0.2 mm 1 mps 743 mmHg 70%
    15:00 +31°C° 0.2 mm 2 mps 742 mmHg 71%
    16:00 +31°C° 0.2 mm 2 mps 742 mmHg 73%
    17:00 +29°C° 0.2 mm 2 mps 742 mmHg 79%
    18:00 +28°C° 0.2 mm 1 mps 743 mmHg 85%
    19:00 +27°C° 0.2 mm 1 mps 743 mmHg 91%
    20:00 +26°C° 0 mm 1 mps 744 mmHg 92%
    21:00 +26°C° 0 mm 1 mps 744 mmHg 93%
    22:00 +26°C° 0 mm 1 mps 744 mmHg 94%
    23:00 +26°C° 0.1 mm 1 mps 744 mmHg 95%

    19 December, Tuesday

    Time Temperature Precipitation Wind Pressure Humidity
    00:00 +25°C° 0.1 mm 1 mps 744 mmHg 96%
    01:00 +25°C° 0.1 mm 1 mps 744 mmHg 96%
    02:00 +25°C° 0 mm 1 mps 744 mmHg 97%
    03:00 +25°C° 0 mm 1 mps 744 mmHg 97%
    04:00 +24°C° 0 mm 1 mps 744 mmHg 97%
    05:00 +25°C° 0 mm 1 mps 744 mmHg 96%
    06:00 +23°C° 0 mm 0 mps 745 mmHg 95%
    07:00 +23°C° 0 mm 0 mps 745 mmHg 94%
    08:00 +27°C° 0 mm 1 mps 745 mmHg 85%
    09:00 +29°C° 0 mm 1 mps 745 mmHg 76%
    10:00 +31°C° 0 mm 1 mps 746 mmHg 68%
    11:00 +32°C° 0.1 mm 1 mps 745 mmHg 65%
    12:00 +32°C° 0.1 mm 1 mps 744 mmHg 63%
    13:00 +33°C° 0.1 mm 1 mps 743 mmHg 60%
    14:00 +34°C° 0.4 mm 2 mps 742 mmHg 62%
    15:00 +34°C° 0.4 mm 2 mps 742 mmHg 64%
    16:00 +32°C° 0.4 mm 2 mps 741 mmHg 66%
    17:00 +31°C° 0.2 mm 2 mps 742 mmHg 74%
    18:00 +29°C° 0.2 mm 2 mps 742 mmHg 82%
    19:00 +27°C° 0.2 mm 1 mps 743 mmHg 89%
    20:00 +27°C° 0.3 mm 1 mps 743 mmHg 91%
    21:00 +26°C° 0.3 mm 1 mps 744 mmHg 93%
    22:00 +26°C° 0.3 mm 1 mps 744 mmHg 95%
    23:00 +25°C° 0.4 mm 1 mps 744 mmHg 95%

    20 December, Wednesday

    Time Temperature Precipitation Wind Pressure Humidity
    00:00 +25°C° 0.4 mm 1 mps 744 mmHg 96%
    01:00 +25°C° 0.4 mm 1 mps 743 mmHg 97%
    02:00 +25°C° 0.3 mm 1 mps 743 mmHg 97%
    03:00 +25°C° 0.3 mm 1 mps 744 mmHg 97%
    04:00 +24°C° 0.3 mm 1 mps 744 mmHg 98%
    05:00 +25°C° 0 mm 1 mps 744 mmHg 97%
    06:00 +25°C° 0 mm 1 mps 744 mmHg 96%
    07:00 +23°C° 0 mm 0 mps 745 mmHg 95%
    08:00 +27°C° 0.1 mm 1 mps 745 mmHg 86%
    09:00 +29°C° 0.1 mm 1 mps 745 mmHg 78%
    10:00 +31°C° 0.1 mm 1 mps 745 mmHg 70%
    11:00 +32°C° 0.1 mm 1 mps 744 mmHg 66%
    12:00 +33°C° 0.1 mm 1 mps 744 mmHg 63%
    13:00 +35°C° 0.1 mm 2 mps 743 mmHg 59%
    14:00 +33°C° 1.2 mm 1 mps 743 mmHg 64%
    15:00 +32°C° 1.2 mm 1 mps 742 mmHg 70%
    16:00 +32°C° 1.2 mm 1 mps 742 mmHg 75%
    17:00 +30°C° 1.3 mm 1 mps 743 mmHg 80%
    18:00 +28°C° 1.3 mm 1 mps 743 mmHg 86%
    19:00 +27°C° 1.3 mm 1 mps 744 mmHg 91%
    20:00 +26°C° 1 mm 1 mps 744 mmHg 92%
    21:00 +24°C° 1 mm 0 mps 744 mmHg 93%
    22:00 +24°C° 1 mm 0 mps 745 mmHg 93%
    23:00 +24°C° 0.3 mm 0 mps 745 mmHg 94%
    Show more